Regional Weather Roundup
Issued by NWS Newport/Morehead, NC

Current Version | Previous Version | Text Only | Print | Product List | Glossary On
Versions: 1 2 3 4 5 6 7 8 9 10 11 12 13 14 15 16 17 18 19 20 21 22 23 24 25 26 27 28 29 30 31 32 33 34 35 36 37 38 39 40 41 42 43 44 45 46 47 48 49 50
000 ASUS42 KMHX 221722 RWRMHX WEATHER ROUNDUP FOR EASTERN NORTH CAROLINA NATIONAL WEATHER SERVICE NEWPORT/MOREHEAD CITY NC 100 PM EDT MON SEP 22 2014 NOTE: "FAIR" INDICATES FEW OR NO CLOUDS BELOW 12,000 FEET WITH NO SIGNIFICANT WEATHER AND/OR OBSTRUCTIONS TO VISIBILITY NCZ015>017-031-032-045>047-102-103-221800- NORTH COAST CITY SKY/WX TMP DP RH WIND PRES REMARKS EDENTON MOSUNNY 76 54 46 NW8 30.02S ELIZABETH CITY MOSUNNY 77 55 46 NW8 30.01R KITTY HAWK PTSUNNY 75 59 57 N7 30.00S MANTEO PTSUNNY 75 62 62 N12 30.01S $$ NCZ045>047-081-094-103-104-221800- CENTRAL COAST CITY SKY/WX TMP DP RH WIND PRES REMARKS FRISCO PTSUNNY 75 66 73 N9G16 29.99S SWANQUARTER N/A 75 N/A N/A NW5 29.97S $$ NCZ095-097-098-100-101-221800- SOUTHERN COAST CITY SKY/WX TMP DP RH WIND PRES REMARKS BEAUFORT MOSUNNY 82 63 52 N10 30.01R CEDAR ISLAND N/A 77 N/A N/A NW12 30.03F JACKSONVILLE PTSUNNY 75 57 53 N8 30.01F NEWPORT NOT AVBL PINEY ISLAND CLOUDY 79 57 46 N13 30.01R WILMINGTON LGT RAIN 75 59 57 N6 30.01F $$ NCZ011>013-027>030-043-044-078>080-089-090>093-098-221800- COASTAL PLAIN CITY SKY/WX TMP DP RH WIND PRES REMARKS AHOSKIE SUNNY 74 51 45 CALM 30.03F CLINTON MOSUNNY 76 58 54 NE5 30.04F ELIZABETHTOWN MOSUNNY 75 56 51 N5 30.03S GOLDSBORO PTSUNNY 74 59 58 NW3 30.02F GREENVILLE MOSUNNY 75 55 50 NW5 30.05F HAVELOCK CLOUDY 78 60 53 NW10 30.03R KENANSVILLE CLOUDY 74 55 51 N7 30.04F KINSTON PTSUNNY 73 55 53 N8 30.04S NEW BERN CLOUDY 77 57 50 N5 30.03S RICHLANDS PTSUNNY 73 59 60 N7 30.03S ROANOKE RAPIDS NOT AVBL ROCKY MOUNT MOSUNNY 76 53 44 VRB7 30.04S WASHINGTON MOSUNNY 74 57 56 N5 30.03S WHITEVILLE MOSUNNY 74 58 57 NE6 30.02F $$ AMZ130-135-150-152-154-156-158-170-250-252-270-ANZ085-086-088-633-658-670-221800- MARINE OBSERVATIONS STATION/POSITION TIME TEMP WIND PRES WAVE SWELL AIR SEA DIR/SP/G HT/PER HT/PER (UTC) (F) (DEG/KT/KT) (MB) (FT/S) (FT/S) CHESAPEAKE LIGHT 1700 71 340/ 11/ 12 1016.8 BUOY 44014 1700 71 76 340/ 12/ 16 1015.6 5/ 8 3/ 8 DUCK 1700 72 74 10/ 12/ 14 1015.6 2E DUCK 1700 N/A 3/ 9 OREGON INLET 1700 75 75 10/ 13/ 16 1016.0 BUOY 44095 1700 74 N/A 4/ 9 20E OREGON INLET NOT AVBL HATTERAS CG NOT AVBL DIAMOND BUOY 1600 76 330/ 10/ 14 1015.2 5/ 8 5/ 8 CAPE LOOKOUT 1700 78 10/ 14/ 16 1015.9 BEAUFORT LAB 1700 79 76 350/ 10/ 13 1015.7 30 SE NEW RIVER 1700 78 82 10/ 12/ 16 1015.9 4/ 6 3/ 6 5 SE WRIGHTSVILL 1700 74 79 50/ 12/ 14 N/A BUOY 41002 1637 80 82 250/ 4/ 6 1018.3 4/ 7 3/ 7 BUOY 41004 1700 80 82 260/ 10/ 12 1016.0 3/ 5 3/ 5 $$

USA.gov is the U.S. government's official web portal to all federal, state and local government web resources and services.